Aérodrome :
LOGIN :

S'inscrire | Disclaimer

   EN    FR    IT 

 










Légende :    VFR   VFR Marginal   IFR   IFR Intensif   IFR Très Intensif
Visi : 
Plafond : 
>= 8 km
>= 3000ft
5 à 8 km
1000 à 3000 ft
1500m à 5 km
500 à 1000 ft
800 à 1500m
200 à 500 ft
< 800m
< 200 ft
Symboles :   Orages  Brouillard  Fortes neiges  Fortes précipitations  Vent > 20 kt
SIGMETs :   Divers  Orages  Givrage  Turbulence  Onde Orograph.  Cendres Volcan.







- Altitude de l'aérodrome : 120 ft
- Code IATA : MME
- Voir les cartes d'approche


EGNV - Durham Tees valley

DERNIER METAR :
  • 241220Z 17005KT 9999 FEW025 06/01 Q1008

METARs EXPIRÉS :
  • 241150Z 20006KT 160V230 9999 FEW025 05/01 Q1008
  • 241120Z 25006KT 230V290 9999 FEW025 05/01 Q1008
  • 241050Z 23004KT 200V280 9999 FEW025 04/01 Q1008
  • 241020Z 22008KT 9999 FEW025 03/00 Q1008
  • 240950Z 23007KT 9999 FEW025 02/M00 Q1007

TAF TAF EGNV
Valide du 24 à 12h jusqu'au 24 à 21h UTC


241103Z 2412/2421 23007KT 9999 FEW025
ATIS : +44 9012 018 111
Pas de NOTAMs connus pour ce terrain.



MET'MAP, la Météo Aéronautique d'un coup d'oeil ! - Copyright ORBIFLY Décembre 2007 - Disclaimer

ORBIFLY MET'MAP TEAM :

Programmation & Développement : Alexandra Zaïnal
Conception & Développement : Baudouin d'Aumeries
Co-Programmation & Développement : Marc-Olivier Méhu
Soutien technique & logistique : Manuel Goepfert

Contact : metmap@orbifly.com




SOURCES & CREDITS :

   NOAA